DateTimeUTC,F1_A11,F1_S11,BsB_S11,BsG_S11,BsR_S11,BbsB_S11,BbsG_S11,BbsR_S11,BaB_A11,BaG_A11,BaR_A11,Tu_S11,T_S11,Uu_S11,U_S11,P_S11,T1_A11
2021-06-23T00:00:00Z,00040200,20000000,,,,,,,-000.48,-000.10,-000.46,18.4,25.3,03.7,02.4,0675.5,31.1
2021-06-23T00:01:00Z,00040200,20000000,,,,,,,0000.10,-000.02,0000.34,18.4,25.4,03.7,02.4,0675.5,31.1
2021-06-23T00:02:00Z,00040200,20000000,,,,,,,0000.26,0000.22,-000.15,18.4,25.4,03.7,02.4,0675.5,31.1
2021-06-23T00:03:00Z,00040200,60000000,,,,,,,0000.42,0000.22,0000.65,18.4,25.4,03.7,02.4,0675.6,31.1
2021-06-23T00:04:00Z,00040200,40000000,0001.04,0000.84,0000.53,0000.56,0000.12,0000.19,0000.63,0000.48,0000.02,18.5,25.2,03.9,02.6,0676.5,31.1
2021-06-23T00:05:00Z,00040200,00000000,0001.25,0000.93,0000.63,0000.44,0000.30,-000.10,0000.56,0000.79,0000.64,18.5,25.2,04.0,02.7,0676.6,31.1
2021-06-23T00:06:00Z,00040200,00000000,0001.27,0000.83,0000.41,0000.39,0000.37,0000.11,0000.44,0000.79,0000.32,18.5,25.1,03.9,02.6,0676.7,31.1
2021-06-23T00:07:00Z,00040200,00000000,0001.19,0000.74,0000.66,0000.68,0000.14,0000.26,0000.85,0000.42,0000.33,18.5,25.1,04.0,02.7,0676.7,31.1
2021-06-23T00:08:00Z,00040200,00000000,0000.88,0000.88,0000.81,0001.02,-000.08,-000.08,0000.86,0000.42,0000.63,18.5,25.1,04.1,02.7,0676.7,31.1
2021-06-23T00:09:00Z,00040200,00000000,0001.29,0000.76,0000.56,0000.04,-000.05,-000.04,0000.50,0001.07,0000.44,18.5,25.1,04.2,02.8,0676.6,31.1
2021-06-23T00:10:00Z,00040200,00000000,0000.92,0000.85,0000.74,-000.19,-000.05,0000.20,0000.93,0000.51,0000.80,18.4,25.0,04.2,02.8,0676.6,31.1
2021-06-23T00:11:00Z,00040200,00000000,0001.42,0000.64,0000.72,0000.79,0000.27,0000.24,0000.61,0000.70,-000.11,18.4,25.0,04.4,02.9,0676.6,31.1
2021-06-23T00:12:00Z,00040200,00000000,0000.81,0000.56,0000.49,0000.41,0000.00,-000.24,0000.66,0000.59,0001.10,18.4,25.0,04.5,03.0,0676.6,31.1
2021-06-23T00:13:00Z,00040200,00000000,0000.88,0000.72,0000.66,0000.38,-000.04,0000.17,0000.83,0000.70,0000.58,18.4,25.0,04.5,03.0,0676.6,31.1
2021-06-23T00:14:00Z,00040200,00000000,0000.73,0000.63,0000.84,0000.55,-000.02,-000.07,0000.67,0000.59,0000.26,18.5,25.0,04.5,03.0,0676.6,31.1
2021-06-23T00:15:00Z,00040200,00000000,0000.93,0000.84,0000.79,0000.57,-000.06,0000.00,0000.36,0000.24,0000.32,18.6,25.1,04.4,03.0,0676.6,31.1
2021-06-23T00:16:00Z,00040200,00000000,0000.84,0000.98,0000.77,0000.26,-000.03,-000.04,0000.49,-000.16,0000.22,18.6,25.1,04.4,03.0,0676.6,31.1
2021-06-23T00:17:00Z,00040200,00000000,0000.91,0000.74,0000.55,0000.45,0000.31,-000.18,0000.31,0000.86,0000.50,18.6,25.1,04.4,03.0,0676.6,31.1
2021-06-23T00:18:00Z,00040200,00000000,0001.31,0000.92,0000.53,0000.37,0000.12,-000.05,0000.56,0000.52,0000.46,18.6,25.1,04.4,03.0,0676.6,31.1
2021-06-23T00:19:00Z,00040200,00000000,0000.99,0000.73,0000.64,0000.28,0000.10,-000.02,0000.52,0000.33,0000.50,18.6,25.1,04.4,03.0,0676.6,31.1
2021-06-23T00:20:00Z,00040200,00000000,0000.96,0000.60,0000.53,0000.56,0000.23,-000.05,0000.69,0000.64,0000.01,18.6,25.1,04.4,03.0,0676.6,31.1
2021-06-23T00:21:00Z,00040200,00000000,0001.93,0000.87,0001.01,0000.47,0000.06,0000.10,0000.60,0000.46,0000.12,18.6,25.1,04.4,03.0,0676.6,31.1
2021-06-23T00:22:00Z,00040200,00000000,0001.15,0000.66,0000.70,0000.46,0000.01,0000.20,-000.02,0000.32,0000.64,18.5,25.1,04.4,03.0,0676.6,31.1
2021-06-23T00:23:00Z,00040200,00000000,0001.29,0000.85,0000.46,0000.61,0000.03,-000.11,0000.76,0000.61,0000.50,18.5,25.0,04.4,03.0,0676.6,31.1
2021-06-23T00:24:00Z,00040200,00000000,0001.08,0000.92,0000.56,0000.34,0000.22,-000.17,0000.24,0000.29,-000.09,18.5,25.0,04.4,02.9,0676.6,31.1
2021-06-23T00:25:00Z,00040200,00000000,0001.45,0000.53,0001.17,0000.68,0000.19,0000.21,0000.47,0000.76,0000.76,18.5,25.0,04.4,03.0,0676.6,31.1
2021-06-23T00:26:00Z,00040200,00000000,0000.91,0000.67,0000.99,0000.56,0000.35,-000.03,0000.36,-000.03,0000.14,18.4,25.0,04.4,02.9,0676.6,31.1
2021-06-23T00:27:00Z,00040200,00000000,0001.62,0000.66,0000.77,0000.52,-000.17,0000.06,0000.16,-000.01,0000.19,18.4,25.0,04.3,02.9,0676.7,31.1
2021-06-23T00:28:00Z,00040200,00000000,0001.38,0000.76,0000.76,0000.61,0000.06,0000.06,0000.51,0000.61,0000.50,18.4,25.0,04.3,02.9,0676.7,31.1
2021-06-23T00:29:00Z,00040200,00000000,0001.19,0000.86,0000.51,0000.58,-000.03,-000.09,0000.33,0000.77,0000.10,18.5,25.0,04.1,02.7,0676.7,31.1
2021-06-23T00:30:00Z,00040200,00000000,0000.99,0000.82,0000.79,0000.72,0000.28,-000.04,0000.23,0000.25,0000.49,18.6,25.0,04.2,02.8,0676.7,31.1
2021-06-23T00:31:00Z,00040200,00000000,0000.89,0000.54,0000.74,-000.05,0000.04,0000.15,0000.51,0000.32,0000.21,18.7,25.1,04.1,02.8,0676.7,31.1
2021-06-23T00:32:00Z,00040200,00000000,0001.07,0000.78,0000.63,0000.65,0000.20,-000.10,0000.30,0000.47,0000.19,18.7,25.1,04.1,02.8,0676.7,31.1
2021-06-23T00:33:00Z,00040200,00000000,0001.05,0000.64,0000.78,0000.22,0000.23,0000.10,0000.92,0000.46,0000.71,18.7,25.1,04.1,02.8,0676.7,31.1
2021-06-23T00:34:00Z,00040200,00000000,0000.71,0000.60,0000.85,0000.82,-000.16,0000.13,0000.03,-000.09,-000.04,18.7,25.1,04.1,02.8,0676.7,31.1
2021-06-23T00:35:00Z,00040200,00000000,0001.30,0000.98,0000.65,0000.17,-000.22,0000.09,0000.19,0000.10,0000.14,18.6,25.1,04.0,02.7,0676.7,31.1
2021-06-23T00:36:00Z,00040200,00000000,0001.39,0001.00,0000.60,0000.37,-000.15,0000.18,0000.49,0000.59,0000.37,18.6,25.1,03.9,02.6,0676.7,31.1
2021-06-23T00:37:00Z,00040200,00000000,0001.09,0000.54,0000.61,0000.41,0000.13,0000.18,0000.25,0000.12,0000.32,18.6,25.0,03.8,02.5,0676.7,31.1
2021-06-23T00:38:00Z,00040200,00000000,0001.11,0000.81,0000.85,0000.60,0000.14,-000.14,0000.55,0000.82,0000.42,18.5,25.0,03.8,02.6,0676.7,31.1
2021-06-23T00:39:00Z,00040200,00000000,0001.29,0000.72,0000.74,0000.26,0000.20,0000.22,0000.72,0000.52,0000.40,18.5,25.0,03.9,02.6,0676.7,31.1
2021-06-23T00:40:00Z,00040200,00000000,0000.84,0000.80,0000.24,0000.13,0000.25,-000.47,0000.46,0000.60,0000.22,18.5,25.0,03.9,02.6,0676.7,31.1
2021-06-23T00:41:00Z,00040200,00000000,0001.21,0000.82,0000.60,0000.29,0000.06,0000.39,0000.40,0000.39,0000.33,18.4,25.0,03.9,02.6,0676.7,31.1
2021-06-23T00:42:00Z,00040200,00000000,0000.31,0000.40,0000.64,0000.47,-000.13,-000.14,-000.25,-000.10,0000.14,18.4,25.0,04.0,02.7,0676.7,31.1
2021-06-23T00:43:00Z,00040200,00000000,-000.23,0000.37,0000.26,0000.41,0000.15,-000.36,0000.77,0000.24,0000.38,18.4,24.9,04.0,02.7,0676.7,31.1
2021-06-23T00:44:00Z,00040200,00000000,0000.56,0000.19,0000.43,0000.25,0000.13,-000.03,0000.54,0000.88,0000.37,18.5,25.0,04.0,02.7,0676.7,31.1
2021-06-23T00:45:00Z,00040200,00000000,0000.48,0000.11,0000.53,0000.26,-000.13,0000.04,-000.03,0000.06,0000.27,18.6,25.0,04.1,02.8,0676.7,31.1
2021-06-23T00:46:00Z,00040200,00000000,0000.66,0000.47,0000.39,0000.45,0000.20,0000.05,0000.31,0000.14,0000.13,18.6,25.1,04.0,02.7,0676.7,31.1
2021-06-23T00:47:00Z,00040200,00000000,0000.81,0000.57,0000.36,0000.04,-000.14,0000.06,0000.51,0000.44,0000.22,18.7,25.1,04.0,02.7,0676.7,31.1
2021-06-23T00:48:00Z,00040200,00000000,0001.38,0000.66,0000.47,0000.13,0000.02,-000.12,0000.86,0000.48,0000.31,18.7,25.1,04.0,02.7,0676.7,31.1
2021-06-23T00:49:00Z,00040200,00000000,0000.64,0000.94,0000.47,0000.27,0000.02,0000.15,0000.29,0000.44,0000.34,18.7,25.1,04.0,02.7,0676.7,31.1
2021-06-23T00:50:00Z,00040200,00000000,0001.05,0000.60,0000.44,0000.32,-000.03,-000.14,0000.05,0000.03,0000.28,18.7,25.1,04.0,02.7,0676.7,31.1
2021-06-23T00:51:00Z,00040200,00000000,0000.89,0000.47,0000.74,0000.38,-000.16,0000.14,0000.35,0000.52,0000.16,18.6,25.1,04.0,02.7,0676.7,31.1
2021-06-23T00:52:00Z,00040200,00000000,0001.04,0000.45,0000.60,0000.55,0000.10,0000.05,0000.41,0000.53,0000.12,18.6,25.0,04.0,02.7,0676.7,31.1
2021-06-23T00:53:00Z,00040200,00000000,0000.55,0000.50,0000.39,0000.38,-000.09,-000.03,0000.86,0000.58,0000.99,18.6,25.0,04.0,02.7,0676.7,31.1
2021-06-23T00:54:00Z,00040200,00000000,0000.63,0000.30,0000.19,0000.46,-000.05,0000.13,-000.23,-000.32,-000.34,18.5,25.0,04.0,02.7,0676.7,31.1
2021-06-23T00:55:00Z,00040200,00000000,0000.71,0000.11,0000.43,-000.12,-000.10,0000.28,-000.78,-000.52,-000.41,18.5,25.0,03.7,02.5,0676.7,31.1
2021-06-23T00:56:00Z,00040200,00000000,0000.45,-000.06,0000.29,0000.54,-000.03,-000.12,-000.20,-000.94,-000.31,18.5,24.9,03.6,02.4,0676.7,31.1
2021-06-23T00:57:00Z,00040200,40000000,,,,,,,0000.63,0000.72,0000.46,18.5,24.9,03.6,02.4,0676.7,31.1
2021-06-23T00:58:00Z,00040200,60000000,,,,,,,-000.53,0000.17,-000.01,18.2,25.1,03.7,02.4,0675.7,31.1
2021-06-23T00:59:00Z,00040200,20000000,,,,,,,0000.58,0000.49,0000.27,18.2,25.2,03.4,02.2,0675.7,31.1
